COSMOS 2457 (GLONASS)

Satellite information

Favourite Embed

Satellite Type and Status

PAYLOADIN ORBIT

Key statistics

Satellite COSMOS 2457 (GLONASS) at a glance.

Uptime

5796

Days in orbit

Revolutions

≈ 2.1

Per day

Orbit

MEO

Medium Earth Orbit

Inclination

64.9

Latest

Satellite identification and parameters

Extended collection of information and parameters for COSMOS 2457 (GLONASS).

Object identification

Identified? True

Debris? False

Object name: COSMOS 2457 (GLONASS)

International designator: 2009-070B

Object number (NORAD): 36112

Object ID (CCSDS): 36112

Country: COMMONWEALTH OF INDEPENDENT STATES (CIS)

Current information (Y/N): Y

RCS size: LARGE

Orbital parameters

Period: 675.736 minutes

Inclination: 64.8594 deg

SMA: 25508.099 km

Apoapsis: 19144.95 km

Periapsis: 19114.979 km

RAAN: 78.8016 deg

Eccentricy: 0.00058748

Argument of periapsis: 144.1254 deg

Mean anomaly: 231.3702 deg

Mean motion: 2.13101063 rev/day

Mean motion (dot): 0.00000028 rev/day2

B* drag term: 0.0 1/REarth

Two-line elements (TLE)

Creation date: Oct. 27, 2025, 2:46 a.m.

Reference frame: TEME

Reference center: EARTH

Epoch: Oct. 26, 2025, 11:36 a.m. UTC

TLE line 0: 0 COSMOS 2457 (GLONASS)

TLE line 1: 1 36112U 09070B 25299.48358894 .00000028 00000-0 00000-0 0 9995

TLE line 2: 2 36112 64.8594 78.8016 0005875 144.1254 231.3702 2.13101063123457

Live tracking on map

Real-time ground track for satellite COSMOS 2457 (GLONASS).

In-orbit conjunctions

There are no conjunctions computed for COSMOS 2457 (GLONASS), at the moment. Check back to stay up to date, as we update our databases every day.

Go to all conjunctions

Associated space launch

GLONASS navigation satellites

COSMOS 2457 (GLONASS) was lifted into orbit during the mission ‘Proton-M | Uragan-M 21 to 23’, on board a Proton-M space rocket.

The launch took place on Dec. 14, 2009, 10:38 a.m. from 81/24 (81P).

For more information about the launch, click the button.

Launch to space Proton-M | Uragan-M 21 to 23
Proton-M | Uragan-M 21 to 23

Agency: N/A

Status: Launch Successful

Launch date: Dec. 14, 2009, 10:38 a.m. UTC

Rocket: Proton-M

Launch pad: 81/24 (81P)

Location: Baikonur Cosmodrome, Republic of Kazakhstan

...

Latest news about this satellite

There are no fresh news available about this satellite. Check back as we update our databases every day.


Newsletter sign-up

Weekly statistics, charts and insights to help you stay on top of the space industry.